SCP
2 2 1 1 1 1 1 1 1 1 1 0 1 1 1 1 1 1 1 1 1 1 1 1 1 1 1 1 1 1 1 1 1 0 0 0 0 0 0 0 0 0 0
2 2 2 2 2 1 1 1 1 1 1 1 1 1 1 1 1 1 1 1 1 1 1 1 1 1 1 1 1 1 1 1 1 1 1 0 0 0 0 0 0 0 0
3 2 2 2 2 2 2 1 1 1 1 1 1 1 1 1 1 1 1 1 1 1 1 1 1 1 1 1 1 1 1 1 1 1 1 1 0 0 0 0 0 0 0
2 2 2 2 2 2 3 2 1 1 1 1 1 1 1 1 1 1 1 1 1 1 1 1 1 1 1 1 1 1 1 1 1 1 0 0 0 0 0 0 0 0 0
2 2 2 2 2 2 2 2 1 1 1 1 1 1 1 0 0 0 1 1 1 1 1 1 1 1 1 1 0 0 0 0 0 0 0 0 0 0 0 0 0 0 0
2 2 2 2 3 3 2 2 2 2 2 2 1 1 0 0 0 0 0 1 1 1 1 1 1 1 1 0 0 0 0 0 0 0 0 0 0 0 0 0 0 0 0
2 3 3 3 3 3 3 3 3 3 3 2 1 1 0 0 0 0 0 0 0 0 1 1 1 1 0 0 0 0 0 0 0 0 0 0 0 0 0 0 0 0 0
3 3 4 4 4 4 4 4 4 4 3 2 1 0 0 0 0 0 0 0 0 0 0 1 1 1 1 0 0 0 0 0 0 0 0 0 0 0 0 0 0 0 0
3 3 4 4 5 6 6 6 5 4 3 2 1 0 0 0 0 0 0 0 0 0 0 0 1 1 0 0 0 0 0 0 0 0 0 0 0 0 0 0 0 0 0
2 3 4 5 7 8 7 6 5 4 3 2 0 0 0 0 0 0 0 0 0 0 0 0 0 0 0 0 0 0 0 0 0 0 0 0 0 0 0 0 0 0 0
3 3 5 7 8 8 7 6 5 4 3 2 1 0 0 0 0 0 0 0 0 0 0 0 0 0 0 0 0 0 0 0 0 0 0 0 0 0 0 0 0 0 0
3 4 5 7 7 7 6 5 4 4 3 2 1 0 0 0 0 0 0 0 0 0 0 0 0 0 0 0 0 0 0 0 0 0 0 0 0 0 0 0 0 0 0
3 3 4 4 4 4 4 3 2 2 2 2 1 0 0 0 0 0 0 0 0 0 0 0 0 0 0 0 0 0 0 0 0 0 0 0 0 0 0 0 0 0 0
1 1 1 1 1 1 1 1 1 1 1 1 0 0 0 0 0 0 0 0 0 0 0 0 0 0 0 0 0 0 0 0 0 0 0 0 0 0 0 0 0 0 0
0 0 0 0 0 0 0 0 0 0 0 0 0 0 0 0 0 0 0 0 0 0 0 0 0 0 0 0 0 0 0 0 0 0 0 0 0 0 0 0 0 0 0
0 0 0 0 0 0 0 0 0 0 0 0 0 0 0 0 0 0 0 0 0 0 0 0 0 0 0 0 0 0 0 0 0 0 0 0 0 0 0 0 0 0 0
0 0 0 0 0 0 0 0 0 0 0 0 0 0 0 0 0 0 0 0 0 0 0 0 0 0 0 0 0 0 0 0 0 0 0 0 0 0 0 0 0 0 0
0 0 0 0 0 0 0 0 0 0 0 0 0 0 0 0 0 0 0 0 0 0 0 0 0 0 0 0 0 0 0 0 0 0 0 0 0 0 0 0 0 0 0
0 0 0 0 0 0 0 0 0 0 0 0 0 0 0 0 0 0 0 0 0 0 0 0 0 0 0 0 0 0 0 0 0 0 0 0 0 0 0 0 0 0 0
0 0 0 0 0 0 0 0 0 0 0 0 0 0 0 0 0 0 0 0 0 0 0 0 0 0 0 0 0 0 0 0 0 0 0 0 0 0 0 0 0 0 0
0 0 0 0 0 0 0 0 0 0 0 0 0 0 0 0 0 0 0 0 0 0 0 0 0 0 0 0 0 0 0 0 0 0 0 0 0 0 0 0 0 0 0
0 0 0 0 0 0 0 0 0 0 0 0 0 0 0 0 0 0 0 0 0 0 0 0 0 0 0 0 0 0 0 0 0 0 0 0 0 0 0 0 0 0 0
0 0 0 0 0 0 0 0 0 0 0 0 0 0 0 0 0 0 0 0 0 0 0 0 0 0 0 0 0 0 0 0 0 0 0 0 0 0 0 0 0 0 0
0 0 0 0 0 0 0 0 0 0 0 0 0 0 0 0 0 0 0 0 0 0 0 0 0 0 0 0 0 0 0 0 0 0 0 0 0 0 0 0 0 0 0
0 0 0 0 0 0 0 0 0 0 0 0 0 0 0 0 0 0 0 0 0 0 0 0 0 0 0 0 0 0 0 0 0 0 0 0 0 0 0 0 0 0 0
0 0 0 0 0 0 0 0 0 0 0 0 0 0 0 0 0 0 0 0 0 0 0 0 0 0 0 0 0 0 0 0 0 0 0 0 0 0 0 0 0 0 0
Wind_Speed
5 4 3 3 3 2 2 3 3 3 3 4 4 5 5 5 5 5 4 4 4 4 3 4 3 2 2 1 1 2 2 3 3 3 2 1 1 1 1 1 2 3 4
5 4 3 2 2 2 2 2 2 2 2 2 3 4 4 4 4 5 5 4 5 4 4 3 3 2 2 1 1 2 2 2 3 3 2 1 1 1 1 1 2 2 3
4 4 3 2 2 2 1 1 1 2 1 1 2 3 4 3 4 4 5 4 4 4 4 4 3 3 3 2 2 1 1 1 1 2 2 1 1 1 1 1 1 2 2
4 4 3 3 2 2 2 2 1 2 2 2 2 2 3 3 3 3 4 4 3 3 3 3 3 4 4 3 2 1 1 0 1 1 0 1 1 1 1 1 2 2 2
4 4 3 3 2 2 2 2 2 3 3 2 3 2 3 2 2 3 3 4 3 3 2 2 2 2 2 2 2 1 1 1 1 1 1 1 1 1 1 1 1 2 2
4 4 3 3 3 3 3 3 4 4 4 4 4 4 4 3 5 6 4 3 3 3 3 2 3 4 5 5 5 3 2 2 1 1 0 0 1 1 1 1 1 1 2
4 4 4 4 4 4 4 5 5 5 5 5 5 5 5 5 6 7 6 4 4 3 3 3 3 4 4 4 5 6 6 5 2 2 1 0 1 1 1 1 1 1 2
4 4 4 5 5 5 5 5 5 5 5 5 6 5 5 6 7 8 7 5 5 5 4 3 4 3 4 4 5 5 5 5 4 3 2 2 2 1 0 0 1 1 1
4 4 4 5 6 6 6 6 5 6 6 6 6 6 6 6 8 8 6 5 5 5 5 6 5 5 6 7 6 6 5 5 7 8 7 6 7 7 4 2 2 2 2
4 5 5 5 6 7 6 6 5 6 6 6 7 7 7 7 9 9 6 4 6 5 5 6 8 8 8 8 6 6 6 4 4 6 6 7 6 7 7 3 1 1 1
5 6 7 6 7 7 6 6 6 7 7 7 8 7 8 8 9 11 8 4 5 5 5 5 5 10 11 11 9 6 5 4 4 5 5 5 5 5 5 4 3 2 1
7 8 8 7 6 7 7 7 6 7 8 7 7 7 6 7 8 9 11 9 7 6 5 4 6 10 11 11 9 9 10 7 5 5 5 5 5 4 4 5 5 4 2
8 8 8 9 8 7 7 7 6 5 6 5 5 6 5 5 6 11 12 12 11 7 6 8 9 11 10 8 11 11 8 6 5 5 5 4 3 3 4 4 5 4 4
9 8 8 9 9 9 7 6 6 5 5 5 5 5 5 5 5 5 5 6 9 7 6 8 10 11 9 8 8 7 6 5 4 4 3 3 3 4 4 4 4 4 4
9 9 8 8 8 9 9 7 6 5 3 5 4 4 5 4 4 5 4 4 4 4 5 5 6 6 6 6 5 5 5 5 5 4 4 4 4 4 4 4 3 3 3
9 7 6 6 6 7 8 9 14 11 13 12 10 7 6 6 8 10 11 10 10 9 8 6 5 5 5 4 4 4 5 5 4 4 4 3 3 4 4 4 3 3 3
8 7 6 6 6 5 6 7 7 9 13 14 12 11 10 9 11 11 11 12 11 10 8 6 5 4 4 4 4 4 3 3 3 3 3 3 3 3 3 3 4 3 3
7 8 7 6 5 5 5 5 6 6 6 5 7 9 10 11 11 11 10 10 8 7 5 4 4 4 3 3 3 3 3 3 3 3 3 3 3 3 3 3 3 3 3
7 5 6 5 5 5 5 5 5 6 5 4 3 5 7 9 11 11 9 6 5 5 4 4 3 3 3 3 3 3 3 3 3 3 3 3 3 3 3 3 3 5 3
6 10 9 6 6 5 5 5 5 5 5 4 3 3 3 5 5 5 5 5 5 4 4 3 3 3 3 3 3 3 3 3 3 3 3 3 3 3 3 3 3 3 3
5 7 10 7 5 5 5 5 5 5 4 4 3 4 6 5 5 4 4 4 4 4 3 3 3 3 3 3 3 3 3 3 3 3 3 3 3 3 3 3 3 3 3
5 5 5 5 5 5 5 5 5 5 5 5 4 4 7 5 4 4 4 3 3 3 3 3 3 3 2 2 2 2 3 3 3 3 3 4 3 3 3 3 3 3 3
5 6 5 5 5 7 6 5 5 5 5 4 4 4 4 4 4 3 3 3 3 3 3 3 3 3 3 2 2 2 2 2 2 3 3 3 3 3 3 3 4 4 4
5 6 5 5 5 5 5 5 5 5 5 4 4 4 3 3 3 3 3 3 3 3 3 3 3 4 4 2 2 2 2 2 3 2 3 3 3 3 3 3 4 4 4
6 6 5 5 5 5 5 5 5 4 4 4 4 3 3 3 3 2 2 3 3 3 3 3 2 2 3 3 2 2 4 5 4 3 2 2 3 3 3 3 4 4 4
5 6 5 5 5 5 5 5 4 4 4 4 3 3 3 2 2 2 3 3 3 3 2 2 2 2 2 2 3 4 4 5 6 5 3 2 3 3 3 3 4 4 4
Wind_Direction
169 172 176 186 190 180 181 191 195 200 200 199 198 196 198 200 194 190 195 187 187 193 194 187 199 195 195 197 186 196 192 176 213 259 262 275 242 230 230 229 232 226 231
168 162 168 175 167 162 180 195 185 187 196 200 191 186 191 190 187 186 193 188 183 188 192 183 199 200 197 202 201 206 201 194 198 241 283 318 296 241 222 246 255 241 237
153 150 154 154 150 158 175 170 148 149 154 157 168 178 178 179 179 185 188 184 181 185 186 188 196 184 203 207 201 209 222 211 184 202 261 297 318 348 12 336 326 298 274
138 145 152 153 152 157 150 142 138 129 123 124 138 149 151 153 167 172 168 163 163 165 170 179 186 189 198 190 186 193 184 135 123 139 274 326 331 332 45 360 332 316 299
139 147 154 157 140 122 120 124 118 109 107 105 99 98 103 118 136 131 136 147 146 143 136 139 139 133 135 140 146 147 127 105 92 80 334 1 351 357 333 308 293 301 312
140 139 132 125 119 114 110 105 97 91 85 85 81 84 84 87 98 105 119 124 131 135 129 119 101 81 78 82 85 91 111 134 155 142 192 296 294 298 313 321 305 349 314
126 125 122 119 110 105 101 98 95 92 87 82 80 83 82 77 90 94 102 105 102 103 101 96 87 75 78 78 72 63 56 52 85 135 122 281 302 292 295 327 308 231 249
119 115 118 117 110 101 98 94 85 81 83 80 78 79 80 67 78 85 88 90 88 82 83 95 96 83 67 77 77 67 58 44 46 64 79 41 18 342 321 260 273 310 308
120 120 120 122 116 108 102 98 94 91 82 74 74 73 75 60 65 79 90 93 87 77 71 69 76 74 63 74 81 77 63 44 48 58 60 57 50 41 39 56 38 47 357
112 115 111 112 113 110 106 100 92 90 87 82 72 65 67 62 58 67 81 89 87 79 67 61 60 67 63 68 80 81 71 42 38 45 43 35 35 33 34 46 61 72 50
98 99 96 96 102 105 100 93 93 91 89 83 78 67 60 57 57 58 64 79 91 85 72 61 55 64 65 63 66 68 67 66 60 55 47 37 31 27 22 21 30 65 75
89 92 91 88 94 97 96 92 92 97 95 88 84 74 57 49 50 57 64 72 81 86 80 72 69 68 65 61 61 58 57 59 58 53 48 36 25 14 10 14 19 28 48
89 89 89 83 74 79 88 93 89 88 92 90 87 83 66 50 48 55 62 69 74 80 80 81 75 68 62 58 56 57 56 56 57 57 47 27 7 0 7 11 11 18 23
97 92 89 86 77 66 64 68 80 83 91 91 89 87 75 55 42 43 54 65 69 73 72 68 64 61 60 56 50 48 48 53 62 59 40 17 11 16 18 15 15 10 19
101 97 93 89 91 83 71 57 62 51 78 103 98 97 93 74 39 63 80 70 69 73 77 65 59 57 57 52 48 42 39 39 43 37 36 27 20 20 12 7 14 19 21
108 104 104 102 98 99 98 78 54 62 67 74 86 96 79 87 86 78 76 75 73 78 79 73 67 63 62 57 54 45 37 34 31 35 35 31 26 21 12 8 14 18 8
117 116 112 111 110 108 106 107 96 65 60 64 69 76 82 83 79 78 77 74 70 76 78 74 70 65 61 57 55 53 39 23 27 35 34 24 19 15 12 6 3 3 356
113 116 117 115 115 112 110 107 109 111 98 65 53 67 74 75 76 77 79 79 65 59 73 78 73 65 59 55 52 49 40 29 28 27 24 18 16 12 6 1 359 355 344
110 111 111 109 108 111 112 106 103 101 100 96 77 59 63 70 69 68 74 81 85 74 68 67 68 66 59 55 51 49 46 36 24 21 16 8 4 6 360 351 349 351 353
105 114 114 112 109 105 106 109 107 104 101 94 84 76 65 71 69 60 62 75 82 79 73 68 60 61 59 56 52 49 41 28 16 13 1 356 355 358 351 344 343 341 336
106 113 112 107 107 112 110 108 108 107 103 96 87 92 103 96 92 85 77 75 81 82 81 76 67 60 53 51 50 48 41 19 7 360 353 348 348 346 338 337 333 331 328
105 107 107 109 109 109 109 106 105 108 109 106 94 90 94 92 92 87 81 75 74 80 91 91 77 65 61 59 57 48 33 13 357 352 347 342 341 338 336 335 335 331 330
104 106 106 105 106 108 104 103 107 108 106 103 103 96 93 93 95 95 91 86 85 84 80 85 84 68 51 50 48 50 37 352 324 323 331 333 334 332 330 329 328 331 331
106 108 108 106 102 104 107 108 108 109 109 107 104 104 105 105 102 100 98 98 96 89 85 84 90 92 80 58 38 24 2 327 316 309 312 313 320 322 327 328 325 324 325
102 104 105 106 109 110 109 110 111 111 111 112 112 111 107 103 102 101 102 105 105 99 95 93 93 86 78 58 35 8 352 351 345 330 311 313 323 323 321 319 321 323 324
102 103 104 105 107 111 113 116 117 118 118 117 117 120 122 119 114 112 115 115 113 107 101 97 108 96 71 45 26 11 4 360 355 351 344 339 343 337 335 324 324 329 329